Regional Weather Roundup
Issued by NWS Cleveland, OH

Home | Current Version | Previous Version | Text Only | Print | Product List | Glossary Off
Versions: 1 2 3 4 5 6 7 8 9 10 11 12 13 14 15 16 17 18 19 20 21 22 23 24 25 26 27 28 29 30 31 32 33 34 35 36 37 38 39 40 41 42 43 44 45 46 47 48 49 50

000
ASUS41 KCLE 300510
RWRCLE
OHIO REGIONAL WEATHER ROUNDUP
NATIONAL WEATHER SERVICE WILMINGTON, OH
100 AM EDT SAT AUG 30 2014

NOTE: "FAIR" INDICATES FEW OR NO CLOUDS BELOW 12,000 FEET WITH NO
SIGNIFICANT WEATHER AND/OR OBSTRUCTIONS TO VISIBILITY.

OHZ001>008-015>018-024>027-034-035-043-044-300600-
   NORTHWEST OHIO

CITY           SKY/WX    TMP DP  RH WIND       PRES   REMARKS
DEFIANCE       PTCLDY    75  63  66 VRB6      30.01F
FINDLAY        PTCLDY    73  62  68 SE9       30.03S
TOLEDO EXPRESS PTCLDY    69  62  78 S5        30.02S
TOLEDO METCALF PTCLDY    69  61  75 SE7       30.03F
LIMA           PTCLDY    73  64  73 S7        30.04F
$$

OHZ009>014-019>023-028>033-038-089-300600-
   NORTHEAST OHIO

CITY           SKY/WX    TMP DP  RH WIND       PRES   REMARKS
CLE-HOPKINS    CLEAR     68  54  60 S8        30.08S
CLE-LAKEFRONT  CLEAR     71  54  54 S10       30.05S
CUY CO. ARPT   NOT AVBL
LORAIN-ELYRIA  CLEAR     70  55  59 S10       30.07S
ASHTABULA      CLEAR     64  54  69 SE7       30.11R
AKRON-CANTON   CLEAR     68  54  60 S8        30.10S
WOOSTER        CLEAR     62  56  80 SE3       30.11R
MANSFIELD      CLEAR     68  58  70 S8        30.10R
YOUNGSTOWN     PTCLDY    64  54  69 SE8       30.11F
$$

OHZ042-051>053-060>062-070>072-077>081-300600-
  SOUTHWEST OHIO

CITY           SKY/WX    TMP DP  RH WIND       PRES   REMARKS
CINC-COVINGTON PTCLDY    74  68  81 S6        30.06R
CINC-LUNKEN    PTCLDY    73  71  93 SW5       30.06R
HAMILTON       PTCLDY    74  71  91 CALM      30.06R
DAYTON         PTCLDY    73  68  84 SE8       30.07R
WRIGHT-PAT AFB CLEAR     72  68  87 CALM      30.06R
DAYTON GENERAL CLEAR     72  67  84 S6        30.06R
WILMINGTON     MOCLDY    71  64  78 S5        30.08R
$$

OHZ036-037-039>041-045>050-054>059-063>069-073>076-082>088-300600-
  CENTRAL AND SOUTHEAST OHIO

CITY           SKY/WX    TMP DP  RH WIND       PRES   REMARKS
COLUMBUS       MOCLDY    77  59  53 SE7       30.07R
OSU AIRPORT    PTCLDY    75  59  57 SE9       30.07S
BOLTON FIELD   PTCLDY    70  63  78 SE5       30.08R
RICKENBACK AFB CLOUDY    74  58  56 SE3       30.07R
NEWARK         MOCLDY    64  62  93 CALM      30.09R
MARION         PTCLDY    69  61  75 S5        30.08R
LANCASTER      MOCLDY    71  62  73 SE5       30.09R
ZANESVILLE     PTCLDY    66  60  81 CALM      30.09S
NEW PHILLY     CLEAR     60  57  89 CALM      30.11S
$$


USA.gov is the U.S. government's official web portal to all federal, state and local government web resources and services.